Lid_Strength_Index
4 3 3 3 3 3 3 3 3 3 3 3 2 3 2 2 2 2 2 2 2 2 2 1 2 2 2 2 2 3 3 3 5 6 5 4 3 3 2 2 1 1 1
4 2 2 3 3 3 3 2 3 2 2 3 3 3 2 2 1 1 1 1 3 3 3 3 3 1 3 3 3 3 4 5 5 6 6 5 4 4 4 4 2 1 1
3 2 3 2 3 4 3 2 1 2 1 1 3 3 2 3 1 2 2 3 3 3 3 4 4 4 4 5 4 5 4 4 5 5 6 6 5 4 4 4 3 3 1
3 2 2 2 2 3 2 2 2 1 1 2 3 3 4 3 3 3 2 3 4 4 4 4 4 4 4 4 4 4 4 4 3 5 5 5 5 4 4 4 3 3 3
3 2 2 2 1 2 2 3 1 2 2 2 3 4 5 5 4 4 4 3 3 3 3 3 3 1 0 2 4 5 5 5 6 6 6 6 6 5 5 5 5 5 5
3 2 1 1 1 1 2 3 3 3 3 3 3 3 6 5 4 4 4 5 2 2 3 3 3 2 2 1 1 2 3 5 6 5 6 6 6 6 5 5 6 7 8
4 2 1 1 2 1 2 2 4 4 4 4 2 3 5 6 5 5 4 5 3 3 2 2 2 2 4 5 2 1 2 2 3 5 5 5 5 5 6 8 8 7 7
4 2 1 1 2 2 2 2 4 4 4 4 2 2 4 5 5 6 6 5 4 3 3 3 3 3 5 6 4 4 4 4 4 3 5 5 4 5 6 7 8 8 8
4 4 1 1 2 3 2 2 3 4 5 4 2 2 2 4 5 6 7 7 5 4 3 2 2 3 5 5 4 5 6 6 4 3 4 5 5 5 6 7 8 9 10
4 4 2 1 1 2 3 2 2 2 3 4 3 4 3 3 4 5 7 7 8 7 4 4 3 3 6 6 6 7 9 9 8 8 8 7 6 5 5 6 7 8 9
2 3 2 1 2 2 3 4 2 2 1 2 4 4 4 4 4 6 6 7 7 7 7 4 6 6 7 7 7 7 7 8 8 9 8 7 5 6 5 5 5 7 8
1 2 2 2 2 1 2 4 3 3 2 2 4 4 4 3 4 5 6 7 6 8 8 7 5 7 8 8 8 8 8 7 9 8 8 8 7 5 4 5 5 5 7
1 2 3 3 2 1 2 4 3 3 4 3 3 3 2 4 4 5 6 7 7 8 8 8 7 7 7 7 7 7 7 8 8 8 8 8 7 7 6 5 4 4 5
2 2 2 2 3 2 2 2 3 3 5 5 3 3 4 4 5 5 5 6 7 6 7 8 7 7 7 7 6 6 6 7 7 7 8 8 8 8 8 7 7 6 6
2 2 3 3 2 4 4 3 2 3 4 5 5 4 4 5 5 6 6 5 6 7 8 9 9 9 9 9 8 7 6 6 6 7 7 7 8 9 8 7 7 8 8
4 3 3 3 3 3 4 3 5 5 6 8 7 6 4 6 7 8 8 8 8 9 10 10 11 11 10 10 10 9 8 6 6 7 7 7 8 9 8 8 9 9 9
3 3 2 2 3 3 3 4 3 3 4 7 7 8 9 7 8 8 9 9 10 10 10 11 10 10 10 9 9 8 7 7 6 6 6 8 9 9 9 8 8 8 8
4 4 3 2 2 4 4 4 3 3 3 3 5 6 7 8 9 9 10 10 10 10 11 10 10 10 10 9 9 8 7 8 8 8 9 9 9 8 8 8 8 8 9
4 5 5 4 3 3 4 4 4 3 3 3 2 4 8 10 10 10 10 9 9 10 10 10 10 9 9 9 8 7 7 8 9 9 9 9 9 8 8 8 8 9 9
5 6 6 5 4 3 3 5 4 3 3 3 3 3 4 7 6 8 9 9 9 9 9 9 8 8 8 8 8 7 8 9 9 9 9 9 8 8 8 8 9 9 9
2 3 5 5 6 4 3 3 4 4 3 2 2 3 9 5 4 4 7 9 8 8 8 8 8 8 8 7 7 7 7 8 8 9 9 9 9 9 8 9 8 8 9
2 2 2 3 4 4 4 2 3 5 5 4 3 2 8 5 5 4 4 4 6 6 7 7 7 7 7 7 7 7 7 7 8 8 9 9 9 9 9 9 9 9 10
2 2 1 2 4 6 6 4 4 4 6 6 5 4 2 2 3 3 3 3 4 4 5 6 6 6 7 6 6 7 7 7 7 7 8 9 9 10 9 10 10 10 10
2 2 3 4 5 6 6 5 5 6 5 5 6 6 5 3 2 2 2 3 3 3 4 4 5 5 6 6 7 7 7 6 7 7 8 9 10 11 10 10 10 10 10
2 3 4 5 6 6 6 5 5 5 5 5 6 6 5 4 3 3 3 3 2 2 3 3 3 2 4 5 6 6 7 11 8 9 8 9 9 9 10 10 10 9 9
3 4 6 6 6 5 5 5 6 6 6 6 6 6 6 4 3 3 3 2 1 2 2 3 3 3 2 3 4 8 11 11 10 11 8 8 9 10 10 10 10 10 10